This demonstration page uses our WeatherBlox Daily Observations layout. Learn more.

Left ArrowRight Arrow

Hourly Observations for May 28, 2015

Temp ( °F °C ) Dew Point ( °F °C ) Humidity (%) Winds ( mph kmh ) Pressure ( in mb ) Visibility ( mi km ) Precip ( " mm )
12:53 am 00:53 Clear 67 19.4 62 16.7 84 84 VRB 3 6 30.14 1021 10 16 0.00 0.00
1:53 am 01:53 Clear 65 18.3 62 16.7 90 90 Calm 30.15 1021 10 16 0.00 0.00
2:53 am 02:53 Clear 64 17.8 62 16.7 93 93 W 3 6 30.15 1021 10 16 0.00 0.00
3:53 am 03:53 Clear 62 16.7 60 15.6 93 93 Calm 30.16 1021 9 14 0.00 0.00
4:53 am 04:53 Mostly Clear 61 16.1 59 15 93 93 Calm 30.16 1021 7 11 0.00 0.00
5:53 am 05:53 Mostly Clear with Mist and Fog 59 15 58 14.4 96 96 Calm 30.18 1022 6 10 0.00 0.00
6:05 am 06:05 Clear with Mist and Fog 60 15.6 58 14.4 93 93 Calm 30.15 1021 2 3 0.00 0.00
6:14 am 06:14 Mostly Clear with Mist and Fog 59 15 58 14.4 96 96 Calm 30.18 1022 4 6 0.00 0.00
6:30 am 06:30 Partly Cloudy with Mist and Fog 60 15.6 59 15 96 96 Calm 30.18 1022 2 3 0.00 0.00
6:49 am 06:49 Partly Cloudy with Mist and Fog 61 16 59 15 94 94 Calm 30.18 1022 6 10 0.00 0.00
6:53 am 06:53 Partly Cloudy with Mist and Fog 60 15.6 59 15 96 96 Calm 30.19 1023 6 10 0.00 0.00
7:26 am 07:26 Mostly Cloudy with Mist and Fog 63 17.2 62 16.7 97 97 Calm 30.18 1022 5 8 0.00 0.00
7:53 am 07:53 Cloudy with Mist and Fog 65 18.3 63 17.2 93 93 Calm 30.20 1023 6 10 0.00 0.00
8:32 am 08:32 Cloudy with Mist and Fog 67 19.4 64 17.8 91 91 Calm 30.18 1022 6 10 0.00 0.00
8:53 am 08:53 Cloudy 67 19.4 64 17.8 91 91 Calm 30.22 1023 7 11 0.00 0.00
9:53 am 09:53 Cloudy with Haze 69 20.6 64 17.8 84 84 Calm 30.22 1023 6 10 0.00 0.00
10:25 am 10:25 Cloudy with Haze 70 21.1 65 18.3 84 84 E 5 7 30.21 1023 5 8 0.00 0.00
10:53 am 10:53 Mostly Cloudy with Haze 73 22.8 66 18.9 79 79 ESE 6 9 30.22 1024 6 10 0.00 0.00
11:16 am 11:16 Mostly Cloudy with Haze 74 23.3 65 18.3 74 74 Calm 30.21 1023 6 10 0.00 0.00
11:53 am 11:53 Mostly Cloudy 75 23.9 65 18.3 71 71 Calm 30.23 1024 7 11 0.00 0.00
12:53 pm 12:53 Mostly Cloudy 77 25 66 18.9 69 69 E 6 9 30.22 1023 9 14 0.00 0.00
1:01 pm 13:01 Partly Cloudy 79 26.1 66 18.9 65 65 VRB 3 6 30.21 1023 9 14 0.00 0.00
1:53 pm 13:53 Partly Cloudy 81 27.2 66 18.9 61 61 Calm 30.20 1023 10 16 0.00 0.00
2:53 pm 14:53 Sunny 82 27.8 65 18.3 56 56 VRB 5 7 30.18 1022 10 16 0.00 0.00
3:53 pm 15:53 Mostly Sunny 84 28.9 64 17.8 51 51 Calm 30.16 1022 10 16 0.00 0.00
4:53 pm 16:53 Cloudy 81 27.2 64 17.8 57 57 E 5 7 30.16 1021 10 16 0.00 0.00
5:53 pm 17:53 Cloudy 83 28.3 64 17.8 53 53 E 12 19 30.14 1021 10 16 0.00 0.00
6:53 pm 18:53 Cloudy 82 27.8 64 17.8 55 55 E 7 11 30.13 1020 10 16 0.00 0.00
7:53 pm 19:53 Partly Cloudy 81 27.2 63 17.2 54 54 VRB 3 6 30.13 1020 10 16 0.00 0.00
8:53 pm 20:53 Sunny 73 22.8 65 18.3 76 76 Calm 30.14 1021 10 16 0.00 0.00
9:53 pm 21:53 Clear 68 20 64 17.8 87 87 Calm 30.15 1021 10 16 0.00 0.00
10:53 pm 22:53 Clear 66 18.9 63 17.2 90 90 E 3 6 30.16 1022 8 13 0.00 0.00
11:53 pm 23:53 Clear 68 20 63 17.2 84 84 ENE 3 6 30.15 1021 10 16 0.00 0.00

Powered by AerisWeather